| time (UTC) | temp C | wind direction | speed KPH | gust KPH | rain 1hr cm | rain 24hr cm | rain mn cm | humidity % | barometer mb |
| 20260504160204 | 13 | 37 | 0.0 | 0.0 | 0.15 | 0.33 | 0.33 | 93 | 1012.3 |
| 20260504150204 | 13 | 0 | 0.0 | 0.0 | 0.05 | 0.15 | 0.15 | 91 | 1012.6 |
| 20260504141205 | 14 | 290 | 0.0 | 0.0 | 0.00 | 0.10 | 0.08 | 86 | 1012.9 |
| 20260504140704 | 14 | 348 | 0.0 | 0.0 | 0.00 | 0.10 | 0.08 | 86 | 1012.9 |
| 20260504140204 | 14 | 348 | 0.0 | 0.0 | 0.00 | 0.10 | 0.08 | 85 | 1012.9 |
| 20260504130704 | 15 | 194 | 0.0 | 0.0 | 0.00 | 0.15 | 0.08 | 81 | 1013.1 |
| 20260504130204 | 15 | 194 | 0.0 | 0.0 | 0.00 | 0.15 | 0.08 | 80 | 1013.2 |
| 20260504120204 | 15 | 167 | 0.0 | 0.0 | 0.03 | 0.15 | 0.08 | 83 | 1013.3 |
| 20260504110704 | 15 | 329 | 0.0 | 0.0 | 0.03 | 0.15 | 0.05 | 84 | 1013.4 |
| 20260504110226 | 15 | 287 | 0.0 | 0.0 | 0.05 | 0.15 | 0.05 | 85 | 1013.5 |
| 20260504100205 | 15 | 221 | 0.0 | 0.0 | 0.03 | 0.10 | 0.03 | 84 | 1013.8 |
| 20260504081205 | 15 | 355 | 0.0 | 0.0 | 0.00 | 0.08 | 0.00 | 80 | 1013.3 |
| 20260504080704 | 14 | 355 | 0.0 | 0.0 | 0.00 | 0.08 | 0.00 | 81 | 1013.3 |
| 20260504080204 | 14 | 355 | 0.0 | 0.0 | 0.00 | 0.08 | 0.00 | 81 | 1013.2 |
| 20260504070204 | 13 | 5 | 0.0 | 0.0 | 0.00 | 0.08 | 0.00 | 83 | 1013.0 |
| 20260504060204 | 11 | 323 | 0.0 | 0.0 | 0.00 | 0.08 | 0.00 | 92 | 1012.8 |
| 20260504050705 | 8 | 323 | 0.0 | 0.0 | 0.00 | 0.08 | 0.00 | 94 | 1013.0 |
| 20260504050204 | 8 | 323 | 0.0 | 0.0 | 0.00 | 0.08 | 0.00 | 95 | 1013.0 |
| 20260504045704 | 8 | 323 | 0.0 | 0.0 | 0.00 | 0.08 | 0.00 | 95 | 1012.9 |
| 20260504045204 | 8 | 323 | 0.0 | 0.0 | 0.00 | 0.08 | 0.00 | 94 | 1012.9 |
| 20260504044704 | 8 | 323 | 0.0 | 0.0 | 0.00 | 0.08 | 0.00 | 94 | 1012.8 |
| 20260504044205 | 8 | 323 | 0.0 | 0.0 | 0.00 | 0.08 | 0.00 | 94 | 1012.8 |
| 20260504043705 | 8 | 323 | 0.0 | 0.0 | 0.00 | 0.08 | 0.00 | 94 | 1012.8 |
| 20260504043204 | 8 | 323 | 0.0 | 0.0 | 0.00 | 0.08 | 0.00 | 95 | 1012.7 |
| 20260504042204 | 8 | 323 | 0.0 | 0.0 | 0.00 | 0.08 | 0.00 | 94 | 1012.7 |
| 20260504041705 | 8 | 323 | 0.0 | 0.0 | 0.00 | 0.08 | 0.00 | 94 | 1012.8 |
| 20260504041204 | 8 | 323 | 0.0 | 0.0 | 0.00 | 0.08 | 0.00 | 94 | 1012.8 |
| 20260504040705 | 8 | 323 | 0.0 | 0.0 | 0.00 | 0.08 | 0.00 | 94 | 1012.8 |
| 20260504035204 | 8 | 323 | 0.0 | 0.0 | 0.00 | 0.08 | 0.00 | 94 | 1012.8 |
| 20260504034704 | 8 | 323 | 0.0 | 0.0 | 0.00 | 0.08 | 0.00 | 94 | 1012.8 |
| 20260504034204 | 8 | 323 | 0.0 | 0.0 | 0.00 | 0.08 | 0.00 | 94 | 1012.8 |
| 20260504033705 | 8 | 323 | 0.0 | 0.0 | 0.00 | 0.08 | 0.00 | 94 | 1012.7 |
| 20260504033204 | 8 | 323 | 0.0 | 0.0 | 0.00 | 0.08 | 0.00 | 94 | 1012.7 |
| 20260504032704 | 8 | 323 | 0.0 | 0.0 | 0.00 | 0.08 | 0.00 | 94 | 1012.7 |
| 20260504032204 | 8 | 316 | 0.0 | 0.0 | 0.00 | 0.08 | 0.00 | 94 | 1012.7 |
| 20260504031704 | 8 | 309 | 0.0 | 0.0 | 0.00 | 0.08 | 0.00 | 94 | 1012.7 |
| 20260504031205 | 8 | 297 | 0.0 | 0.0 | 0.00 | 0.08 | 0.00 | 94 | 1012.7 |
| 20260504030704 | 8 | 297 | 0.0 | 0.0 | 0.00 | 0.08 | 0.00 | 94 | 1012.8 |
| 20260504030204 | 8 | 297 | 0.0 | 0.0 | 0.00 | 0.08 | 0.00 | 94 | 1012.8 |
| 20260504025704 | 8 | 295 | 0.0 | 0.0 | 0.00 | 0.08 | 0.00 | 93 | 1012.8 |
| 20260504025204 | 8 | 295 | 0.0 | 0.0 | 0.00 | 0.08 | 0.00 | 93 | 1012.8 |
| 20260504024704 | 8 | 295 | 0.0 | 0.0 | 0.00 | 0.08 | 0.00 | 93 | 1012.7 |
| 20260504024204 | 8 | 295 | 0.0 | 0.0 | 0.00 | 0.08 | 0.00 | 93 | 1012.6 |
| 20260504023704 | 8 | 295 | 0.0 | 0.0 | 0.00 | 0.08 | 0.00 | 93 | 1012.7 |
| 20260504023204 | 8 | 295 | 0.0 | 0.0 | 0.00 | 0.08 | 0.00 | 93 | 1012.7 |
| 20260504022704 | 8 | 295 | 0.0 | 0.0 | 0.00 | 0.08 | 0.00 | 93 | 1012.6 |
| 20260504022204 | 8 | 295 | 0.0 | 0.0 | 0.00 | 0.08 | 0.00 | 93 | 1012.6 |
| 20260504021704 | 8 | 295 | 0.0 | 0.0 | 0.00 | 0.08 | 0.00 | 93 | 1012.7 |
| 20260504021204 | 8 | 295 | 0.0 | 0.0 | 0.00 | 0.08 | 0.00 | 93 | 1012.8 |
| 20260504020704 | 8 | 295 | 0.0 | 0.0 | 0.00 | 0.08 | 0.00 | 93 | 1012.8 |
| 20260504020211 | 8 | 295 | 0.0 | 0.0 | 0.00 | 0.08 | 0.00 | 93 | 1012.9 |
| 20260504015704 | 8 | 295 | 0.0 | 0.0 | 0.00 | 0.08 | 0.00 | 93 | 1012.9 |
| 20260504015204 | 8 | 295 | 0.0 | 0.0 | 0.00 | 0.08 | 0.00 | 93 | 1013.0 |
| 20260504014704 | 8 | 295 | 0.0 | 0.0 | 0.00 | 0.08 | 0.00 | 93 | 1013.0 |
| 20260504014204 | 9 | 295 | 0.0 | 0.0 | 0.00 | 0.08 | 0.00 | 93 | 1013.0 |
| 20260504013704 | 9 | 295 | 0.0 | 0.0 | 0.00 | 0.08 | 0.00 | 93 | 1013.0 |
| 20260504012704 | 9 | 295 | 0.0 | 0.0 | 0.00 | 0.08 | 0.00 | 93 | 1013.0 |
| 20260504012224 | 9 | 295 | 0.0 | 0.0 | 0.00 | 0.08 | 0.00 | 93 | 1013.1 |
| 20260504010727 | 9 | 295 | 0.0 | 0.0 | 0.00 | 0.08 | 0.00 | 92 | 1013.0 |
| 20260504010204 | 9 | 295 | 0.0 | 0.0 | 0.00 | 0.08 | 0.00 | 92 | 1013.0 |
| 20260504005704 | 9 | 295 | 0.0 | 0.0 | 0.00 | 0.08 | 0.00 | 92 | 1013.1 |
| 20260504004704 | 9 | 295 | 0.0 | 0.0 | 0.00 | 0.08 | 0.00 | 92 | 1013.0 |
| 20260504003704 | 9 | 295 | 0.0 | 0.0 | 0.00 | 0.08 | 0.00 | 92 | 1013.0 |
| 20260504003204 | 9 | 295 | 0.0 | 0.0 | 0.00 | 0.08 | 0.00 | 92 | 1013.0 |
| 20260504001704 | 9 | 295 | 0.0 | 0.0 | 0.00 | 0.08 | 0.00 | 92 | 1013.1 |
| 20260504001205 | 9 | 295 | 0.0 | 0.0 | 0.00 | 0.08 | 0.00 | 92 | 1013.1 |
| 20260504000704 | 9 | 295 | 0.0 | 0.0 | 0.00 | 0.08 | 0.00 | 92 | 1012.9 |
| 20260504000204 | 10 | 295 | 0.0 | 0.0 | 0.00 | 0.08 | 0.00 | 92 | 1012.9 |
| 20260503235704 | 10 | 295 | 0.0 | 0.0 | 0.00 | 0.08 | 0.00 | 92 | 1012.9 |
| 20260503235205 | 10 | 295 | 0.0 | 0.0 | 0.00 | 0.08 | 0.00 | 92 | 1012.8 |
| 20260503234204 | 10 | 295 | 0.0 | 0.0 | 0.00 | 0.08 | 0.00 | 92 | 1012.7 |
| 20260503233704 | 10 | 295 | 0.0 | 0.0 | 0.00 | 0.08 | 0.00 | 92 | 1012.7 |
| 20260503233204 | 10 | 295 | 0.0 | 0.0 | 0.00 | 0.08 | 0.00 | 92 | 1012.7 |
| 20260503232704 | 10 | 295 | 0.0 | 0.0 | 0.00 | 0.08 | 0.00 | 91 | 1012.6 |
| 20260503232205 | 10 | 295 | 0.0 | 0.0 | 0.00 | 0.08 | 0.00 | 91 | 1012.8 |
| 20260503231704 | 10 | 295 | 0.0 | 0.0 | 0.00 | 0.08 | 0.00 | 92 | 1012.8 |
| 20260503231204 | 10 | 295 | 0.0 | 0.0 | 0.00 | 0.08 | 0.00 | 92 | 1012.7 |
| 20260503230705 | 10 | 295 | 0.0 | 0.0 | 0.00 | 0.08 | 0.00 | 92 | 1012.7 |
| 20260503230204 | 10 | 295 | 0.0 | 0.0 | 0.00 | 0.08 | 0.00 | 91 | 1012.7 |
| 20260503225705 | 10 | 295 | 0.0 | 0.0 | 0.00 | 0.08 | 0.00 | 91 | 1012.9 |
| 20260503225204 | 10 | 295 | 0.0 | 0.0 | 0.00 | 0.08 | 0.00 | 91 | 1012.9 |
| 20260503224705 | 10 | 295 | 0.0 | 0.0 | 0.00 | 0.08 | 0.00 | 91 | 1013.0 |
| 20260503224205 | 10 | 295 | 0.0 | 0.0 | 0.00 | 0.08 | 0.00 | 91 | 1013.0 |
| 20260503223704 | 10 | 295 | 0.0 | 0.0 | 0.00 | 0.08 | 0.00 | 91 | 1013.0 |
| 20260503223204 | 10 | 256 | 0.0 | 0.0 | 0.00 | 0.08 | 0.00 | 91 | 1013.1 |
| 20260503222704 | 10 | 256 | 0.0 | 0.0 | 0.00 | 0.08 | 0.00 | 91 | 1013.1 |
| 20260503222204 | 10 | 256 | 0.0 | 0.0 | 0.00 | 0.08 | 0.00 | 90 | 1013.1 |
| 20260503221204 | 10 | 256 | 0.0 | 0.0 | 0.00 | 0.08 | 0.00 | 90 | 1013.0 |
| 20260503220704 | 10 | 256 | 0.0 | 0.0 | 0.00 | 0.08 | 0.00 | 90 | 1012.8 |
| 20260503215704 | 10 | 256 | 0.0 | 0.0 | 0.00 | 0.08 | 0.08 | 90 | 1012.9 |
| 20260503215204 | 11 | 256 | 0.0 | 0.0 | 0.00 | 0.08 | 0.08 | 89 | 1012.9 |
| 20260503214704 | 11 | 256 | 0.0 | 0.0 | 0.00 | 0.08 | 0.08 | 89 | 1012.8 |
| 20260503214204 | 11 | 256 | 0.0 | 0.0 | 0.00 | 0.08 | 0.08 | 89 | 1012.9 |
| 20260503213704 | 11 | 256 | 0.0 | 0.0 | 0.00 | 0.08 | 0.08 | 89 | 1012.9 |
| 20260503213204 | 11 | 256 | 0.0 | 0.0 | 0.00 | 0.08 | 0.08 | 89 | 1012.9 |
| 20260503212204 | 11 | 256 | 0.0 | 0.0 | 0.00 | 0.08 | 0.08 | 89 | 1012.9 |
| 20260503211704 | 11 | 256 | 0.0 | 0.0 | 0.00 | 0.08 | 0.08 | 89 | 1012.8 |
| 20260503211204 | 11 | 256 | 0.0 | 0.0 | 0.00 | 0.08 | 0.08 | 89 | 1012.8 |
| 20260503210705 | 11 | 256 | 0.0 | 0.0 | 0.00 | 0.08 | 0.08 | 89 | 1012.6 |
| 20260503210204 | 11 | 256 | 0.0 | 0.0 | 0.00 | 0.08 | 0.08 | 89 | 1012.7 |
| 20260503205705 | 11 | 256 | 0.0 | 0.0 | 0.00 | 0.08 | 0.08 | 88 | 1012.7 |
| 20260503204704 | 11 | 256 | 0.0 | 0.0 | 0.00 | 0.08 | 0.08 | 88 | 1012.8 |
| 20260503203704 | 11 | 256 | 0.0 | 0.0 | 0.00 | 0.08 | 0.08 | 88 | 1012.9 |
| 20260503203204 | 11 | 256 | 0.0 | 0.0 | 0.00 | 0.08 | 0.08 | 87 | 1012.9 |
| 20260503202705 | 11 | 256 | 0.0 | 0.0 | 0.00 | 0.08 | 0.08 | 87 | 1012.9 |
| 20260503202204 | 12 | 256 | 0.0 | 0.0 | 0.00 | 0.08 | 0.08 | 87 | 1013.1 |
| 20260503201204 | 12 | 256 | 0.0 | 0.0 | 0.00 | 0.08 | 0.08 | 87 | 1012.9 |
| 20260503200704 | 12 | 256 | 0.0 | 0.0 | 0.00 | 0.08 | 0.08 | 87 | 1012.8 |
| 20260503200204 | 12 | 256 | 0.0 | 0.0 | 0.00 | 0.08 | 0.08 | 87 | 1013.0 |
| 20260503195705 | 12 | 256 | 0.0 | 0.0 | 0.00 | 0.08 | 0.08 | 87 | 1012.9 |
| 20260503195205 | 12 | 256 | 0.0 | 0.0 | 0.00 | 0.08 | 0.08 | 87 | 1012.7 |
| 20260503194204 | 13 | 256 | 0.0 | 0.0 | 0.00 | 0.08 | 0.08 | 86 | 1012.7 |
| 20260503193705 | 13 | 256 | 0.0 | 0.0 | 0.00 | 0.08 | 0.08 | 85 | 1012.7 |
| 20260503193204 | 13 | 256 | 0.0 | 0.0 | 0.00 | 0.08 | 0.08 | 85 | 1012.7 |
| 20260503192704 | 13 | 256 | 0.0 | 1.6 | 0.00 | 0.08 | 0.08 | 85 | 1012.8 |
| 20260503192205 | 13 | 256 | 0.0 | 1.6 | 0.00 | 0.08 | 0.08 | 85 | 1012.7 |
| 20260503191704 | 13 | 256 | 0.0 | 0.0 | 0.00 | 0.08 | 0.08 | 84 | 1012.7 |
| 20260503191205 | 14 | 256 | 0.0 | 0.0 | 0.00 | 0.08 | 0.08 | 83 | 1012.8 |
| 20260503190704 | 14 | 255 | 0.0 | 0.0 | 0.00 | 0.08 | 0.08 | 83 | 1012.8 |
| 20260503190205 | 14 | 255 | 0.0 | 0.0 | 0.00 | 0.08 | 0.08 | 82 | 1012.8 |
| 20260503185705 | 15 | 255 | 0.0 | 0.0 | 0.00 | 0.08 | 0.08 | 82 | 1012.8 |
| 20260503185205 | 15 | 255 | 0.0 | 0.0 | 0.00 | 0.08 | 0.08 | 82 | 1012.9 |
| 20260503184204 | 15 | 255 | 0.0 | 0.0 | 0.00 | 0.08 | 0.08 | 80 | 1012.7 |
| 20260503183704 | 15 | 255 | 0.0 | 0.0 | 0.00 | 0.08 | 0.08 | 79 | 1012.6 |
| 20260503182704 | 15 | 255 | 0.0 | 0.0 | 0.00 | 0.08 | 0.08 | 79 | 1012.5 |
| 20260503182205 | 15 | 256 | 0.0 | 1.6 | 0.00 | 0.08 | 0.08 | 79 | 1012.5 |
| 20260503181704 | 15 | 255 | 0.0 | 1.6 | 0.00 | 0.08 | 0.08 | 78 | 1012.4 |
| 20260503181205 | 15 | 255 | 0.0 | 1.6 | 0.00 | 0.08 | 0.08 | 78 | 1012.4 |
| 20260503180205 | 15 | 255 | 0.0 | 0.0 | 0.00 | 0.08 | 0.08 | 78 | 1012.3 |
| 20260503175705 | 15 | 255 | 0.0 | 0.0 | 0.00 | 0.08 | 0.08 | 78 | 1012.3 |
| 20260503175204 | 15 | 255 | 0.0 | 1.6 | 0.00 | 0.08 | 0.08 | 77 | 1012.3 |
| 20260503174704 | 15 | 255 | 0.0 | 1.6 | 0.00 | 0.08 | 0.08 | 77 | 1012.3 |
| 20260503174204 | 15 | 255 | 0.0 | 1.6 | 0.00 | 0.08 | 0.08 | 77 | 1012.4 |
| 20260503173704 | 16 | 255 | 0.0 | 1.6 | 0.00 | 0.08 | 0.08 | 77 | 1012.4 |
| 20260503173204 | 16 | 255 | 0.0 | 1.6 | 0.00 | 0.08 | 0.08 | 77 | 1012.4 |
| 20260503172705 | 16 | 255 | 0.0 | 1.6 | 0.00 | 0.08 | 0.08 | 76 | 1012.3 |
| 20260503172204 | 16 | 255 | 0.0 | 1.6 | 0.00 | 0.08 | 0.08 | 76 | 1012.3 |
| 20260503171704 | 16 | 255 | 0.0 | 3.2 | 0.00 | 0.08 | 0.08 | 75 | 1012.4 |
| 20260503171204 | 16 | 221 | 0.0 | 4.8 | 0.00 | 0.08 | 0.08 | 76 | 1012.4 |
| 20260503170704 | 15 | 221 | 0.0 | 4.8 | 0.00 | 0.08 | 0.08 | 75 | 1012.4 |